EDT,Max TemperatureF,Mean TemperatureF,Min TemperatureF,Max Dew PointF,MeanDew PointF,Min DewpointF,Max Humidity, Mean Humidity, Min Humidity, Max Sea Level PressureIn, Mean Sea Level PressureIn, Min Sea Level PressureIn, Max VisibilityMiles, Mean VisibilityMiles, Min VisibilityMiles, Max Wind SpeedMPH, Mean Wind SpeedMPH, Max Gust SpeedMPH,PrecipitationIn, CloudCover, Events, WindDirDegrees
2013-3-1,44,40,37,29,26,24,63,54,44,29.91,29.83,29.77,10,10,10,17,12,23,0.00,8,Rain,304
2013-3-2,37,34,30,25,21,19,67,58,49,29.92,29.89,29.85,10,10,10,15,11,20,0.00,5,,306
2013-3-3,42,34,27,20,17,15,69,51,36,29.94,29.88,29.82,10,10,10,18,10,26,0.00,3,,303
2013-3-4,44,36,27,18,15,12,67,46,30,30.06,30.01,29.95,10,10,10,22,12,32,0.00,0,,304
2013-3-5,50,38,26,34,22,17,93,54,27,30.10,29.99,29.83,10,10,6,12,3,,0.03,3,Rain,124
2013-3-6,39,36,32,35,33,31,100,91,73,30.01,29.71,29.60,10,5,1,18,7,37,0.98,8,Rain-Snow,354
2013-3-7,48,39,30,30,27,23,91,58,39,30.17,30.11,30.01,10,10,10,21,9,31,0.00,2,,320
2013-3-8,50,44,37,28,26,23,66,51,39,30.28,30.20,30.16,10,10,10,28,13,37,0.00,4,,319
2013-3-9,61,48,35,29,24,21,76,45,22,30.37,30.31,30.27,10,10,10,9,6,16,0.00,0,,318
2013-3-10,62,44,27,39,26,16,88,54,21,30.36,30.30,30.24,10,10,10,12,3,17,0.00,0,,145
2013-3-11,61,52,42,49,44,39,93,78,63,30.26,30.15,29.95,10,10,10,13,6,,0.04,6,,138
2013-3-12,59,51,41,57,51,30,100,85,49,29.99,29.81,29.71,10,7,0,17,11,26,0.70,6,Fog-Rain,253
2013-3-13,52,40,30,31,25,17,92,54,28,30.10,29.99,29.92,10,10,10,24,8,34,0.00,2,Rain,292
2013-3-14,46,39,31,18,15,12,54,39,26,30.17,30.11,30.06,10,10,10,25,15,38,0.00,1,,299
2013-3-15,59,42,24,32,23,17,83,54,25,30.13,29.98,29.81,10,10,7,12,3,21,0.00,1,,206
2013-3-16,61,48,36,47,37,31,83,67,47,29.92,29.79,29.65,10,10,10,9,2,,0.00,5,,102
2013-3-17,41,36,32,34,32,29,93,79,63,30.30,30.16,29.93,10,10,6,6,2,,0.00,5,Rain,83
2013-3-18,38,35,31,37,33,23,100,91,56,30.36,30.18,29.90,10,5,1,10,3,,0.23,7,Rain-Snow,99
2013-3-19,60,48,37,41,32,5,96,73,14,29.94,29.83,29.74,10,10,6,23,5,33,0.02,5,,280
2013-3-20,54,40,27,21,13,8,66,30,19,30.02,29.92,29.79,10,10,10,14,7,25,0.00,0,,265
2013-3-21,40,35,29,27,16,6,75,48,30,29.94,29.83,29.79,10,10,8,21,11,30,0.00,4,Rain-Snow,313
2013-3-22,49,35,22,19,14,9,72,42,27,30.03,29.95,29.90,10,10,10,13,4,21,0.00,0,,287
2013-3-23,55,38,23,22,20,18,85,48,24,30.06,30.00,29.93,10,10,10,16,3,24,0.00,0,,302
2013-3-24,43,36,30,33,28,19,95,78,41,30.03,29.78,29.68,10,8,2,8,2,,0.00,5,Rain-Snow,37
2013-3-25,40,36,32,36,33,32,100,93,80,29.73,29.61,29.54,10,6,1,9,3,,0.28,8,Rain-Snow,304
2013-3-26,49,39,30,36,31,25,96,74,39,30.01,29.83,29.73,10,9,1,18,7,26,0.00,5,Rain,298
2013-3-27,52,44,37,28,26,23,65,50,36,30.15,30.08,30.01,10,10,10,24,14,30,0.00,3,Rain,296
2013-3-28,50,38,29,30,27,25,85,57,42,30.25,30.17,30.12,10,10,10,22,8,31,0.00,6,Rain,298
2013-3-29,57,46,36,31,28,25,78,51,30,30.28,30.23,30.17,10,10,10,14,6,21,0.00,6,,301
2013-3-30,61,46,31,32,27,22,86,52,22,30.25,30.19,30.13,10,10,10,13,2,21,0.00,2,,285
2013-3-31,55,46,37,50,44,26,100,83,58,30.14,29.87,29.78,10,8,2,10,3,,0.01,6,Rain,166